Location: Unspecified
(47.6579°N, 23.5637°E)
Time: 18:30:49
(UTC+02:00)

N. Korean satellite - Visible Passes

Search period start: 02 December 2021 00:00
Search period end: 12 December 2021 00:00
Orbit: 447 x 495 km, 97.3° (Epoch: 01 December)

Date Brightness Start Highest point End Pass type
(mag) Time Alt. Az. Time Alt. Az. Time Alt. Az.
02 Dec 9.7 04:42:14 10° ENE 04:43:49 13° E 04:45:23 10° ESE visible
02 Dec 6.7 06:14:01 10° N 06:17:16 43° WNW 06:20:29 10° SW visible
03 Dec 6.4 05:45:24 10° NNE 05:48:49 78° ESE 05:52:11 10° S visible
03 Dec 9.8 17:57:22 10° WSW 17:59:13 14° W 18:01:04 10° WNW visible
04 Dec 8.2 05:17:08 10° NNE 05:20:14 32° E 05:23:19 10° SSE visible
04 Dec 7.9 06:50:54 10° NNW 06:53:13 17° WNW 06:55:31 10° WSW visible
04 Dec 8.9 17:27:25 10° SSW 17:30:30 28° W 17:33:34 10° NW visible
05 Dec 9.5 04:49:25 10° NE 04:51:32 15° E 04:53:37 10° SE visible
05 Dec 6.9 06:21:45 10° N 06:24:52 35° WNW 06:27:59 10° SW visible
06 Dec 6.2 05:53:01 10° N 05:56:25 83° WNW 05:59:48 10° SSW visible
06 Dec 10.1 18:05:52 10° WSW 18:06:53 11° W 18:07:54 10° WNW visible
07 Dec 7.7 05:24:36 10° NNE 05:27:50 40° E 05:31:03 10° S visible
07 Dec 8.1 06:58:47 10° NNW 07:00:43 15° WNW 07:02:39 10° W visible
07 Dec 9.3 17:35:17 10° SSW 17:38:07 23° W 17:40:55 10° NW visible
08 Dec 9.2 04:56:39 10° NE 04:59:08 19° E 05:01:36 10° SE visible
08 Dec 7.2 06:29:25 10° N 06:32:22 29° WNW 06:35:20 10° SW visible
08 Dec 7.6 17:06:02 10° S 17:09:27 49° W 17:12:49 10° NNW visible
09 Dec 6.3 06:00:33 10° N 06:03:55 65° WNW 06:07:16 10° SSW visible
10 Dec 7.2 05:32:01 10° NNE 05:35:22 51° ESE 05:38:39 10° S visible
10 Dec 8.4 07:06:41 10° NW 07:09:32 10° W 07:07:21 12° NW visible
10 Dec 9.5 17:43:07 10° SW 17:45:39 19° W 17:48:08 10° NW visible
11 Dec 8.9 05:07:22 21° ESE 05:07:22 21° ESE 05:09:24 10° SSE visible
11 Dec 8.2 06:36:59 10° NNW 06:41:28 16° WSW 06:42:33 10° WSW visible
11 Dec 8.1 17:13:37 10° S 17:16:54 39° W 17:20:10 10° NNW visible
